Theta_e
309 307 309 310 307 306 307 306 306 305 306 307 309 309 308 308 308 309 310 310 310 311 314 314 314 313 312 313 313 313 313 313 313 314 313 313 313 313 313 312 311 310 308 306
306 307 307 307 306 307 307 308 308 308 307 305 307 309 309 309 309 310 310 310 310 311 315 314 313 312 313 314 314 314 313 312 312 313 314 313 314 313 312 312 310 309 307 307
308 309 307 307 307 308 306 306 308 307 306 305 305 308 306 308 307 309 311 310 311 312 314 315 312 312 313 313 313 313 313 313 312 311 312 312 311 311 312 311 310 309 307 305
306 307 307 306 307 306 309 306 307 307 307 308 306 310 308 309 308 307 309 310 312 312 312 310 312 313 313 314 313 313 313 313 313 312 311 311 312 312 313 312 311 309 308 307
309 307 307 308 308 305 308 307 307 306 306 306 307 307 308 307 310 309 308 310 310 309 310 313 313 313 313 312 311 312 312 311 311 311 310 310 309 310 310 309 310 309 308 306
305 306 306 307 306 306 307 308 305 303 305 309 308 308 309 308 309 309 309 313 313 312 312 312 312 311 311 310 309 310 310 310 309 308 309 309 308 308 308 309 309 309 308 307
305 305 305 306 307 306 307 307 308 309 308 311 305 307 309 308 308 309 309 310 310 308 309 308 309 310 309 309 310 310 309 308 307 307 308 308 308 307 307 307 307 308 308 307
307 315 305 305 307 309 306 308 312 318 311 315 309 313 313 307 309 307 308 309 309 306 305 306 307 308 308 309 309 308 308 307 308 306 305 304 303 304 304 304 304 306 306 307
315 313 306 303 305 307 306 308 308 311 310 310 312 311 313 309 308 306 306 304 302 303 304 304 304 304 306 307 306 306 306 305 305 305 304 305 304 303 303 304 304 303 304 306
313 317 312 310 305 305 307 307 310 308 315 317 315 312 314 310 308 305 302 301 301 300 300 300 302 302 302 302 304 304 305 304 304 304 304 304 304 302 302 302 304 304 304 303
311 314 315 310 307 309 305 306 306 306 312 316 317 315 311 309 302 302 301 299 298 299 301 303 301 300 301 300 300 300 301 303 303 304 304 304 304 304 303 302 303 303 303 303
310 313 315 314 311 305 307 311 309 312 314 310 314 315 310 302 300 299 296 295 294 296 295 295 297 298 298 298 299 298 298 298 298 299 301 302 303 304 304 303 301 300 301 301
312 312 315 313 311 309 312 312 310 310 311 314 315 315 308 306 299 296 294 293 293 292 292 293 294 294 294 293 293 295 296 296 297 298 298 299 300 302 302 303 303 301 299 299
311 310 313 315 313 312 312 310 307 307 307 309 310 307 306 304 297 294 295 293 292 292 290 289 290 292 292 291 291 291 291 292 293 294 297 297 297 298 298 300 301 301 301 299
308 310 309 311 308 305 305 303 303 303 304 305 304 303 302 296 293 292 291 294 293 290 290 289 289 291 292 290 289 289 289 290 290 291 292 292 294 296 297 297 298 299 300 299
301 303 302 302 301 301 300 298 298 299 300 301 301 301 294 292 291 291 290 291 292 289 288 288 288 288 287 287 287 288 288 287 287 288 288 289 290 292 296 297 297 298 297 298
298 300 298 301 299 295 296 297 297 297 296 296 297 294 291 291 291 290 289 290 289 288 288 287 287 287 286 286 286 285 285 286 286 286 286 286 287 288 289 292 294 297 298 298
297 296 293 297 287 296 295 293 294 296 296 292 289 288 290 290 291 290 289 289 288 288 288 288 287 287 286 285 285 285 285 285 285 285 285 285 285 285 287 287 289 292 295 297
294 294 284 286 283 290 292 293 292 293 291 290 288 289 291 292 290 289 289 288 289 288 288 287 287 286 286 286 285 285 285 285 285 285 285 285 285 285 284 285 285 287 291 295
292 293 291 275 286 285 291 290 291 289 288 287 288 287 288 290 286 288 289 289 288 288 288 287 287 286 286 285 284 284 285 284 284 284 284 284 284 284 284 284 284 284 285 290
279 281 292 291 291 287 288 289 289 286 287 290 289 289 289 288 289 289 289 289 288 288 288 287 286 286 286 285 284 283 283 283 283 283 284 284 284 283 283 284 284 284 284 285
287 281 277 274 280 288 287 288 288 289 290 289 289 289 289 289 289 289 289 290 288 287 287 286 285 285 285 285 283 282 282 281 280 281 282 283 283 284 283 283 283 283 283 284
287 287 284 285 285 288 289 289 290 290 289 289 289 289 289 288 288 288 289 288 287 285 284 284 283 283 284 282 281 280 281 279 278 279 280 281 282 283 283 283 283 282 282 282
288 288 288 289 289 288 289 290 290 290 290 289 289 289 289 288 288 287 286 285 283 283 281 280 279 278 279 280 278 277 276 275 275 275 277 278 278 280 281 281 281 280 280 280
290 288 287 289 289 289 289 289 290 289 289 289 288 288 287 286 285 283 283 282 280 279 277 276 275 275 275 274 274 273 272 271 271 271 272 272 272 273 275 278 279 278 279 278
290 290 290 289 290 289 289 289 289 289 288 287 286 286 284 282 281 279 279 278 276 276 274 273 272 271 270 270 269 269 268 267 267 267 267 267 267 267 269 271 276 277 276 277
Wind_Speed
3 4 8 18 14 3 1 5 7 7 8 4 17 18 14 24 29 36 42 39 35 38 38 33 30 27 23 22 25 27 30 32 40 43 48 51 53 52 53 51 49 48 46 45
3 7 14 3 4 7 9 12 12 10 14 4 10 20 20 21 29 32 38 39 27 35 34 32 31 26 19 15 17 23 27 32 36 41 45 49 52 54 55 54 53 52 50 49
9 6 6 7 5 7 5 6 9 11 6 5 7 8 5 8 14 22 35 27 31 30 26 24 26 24 21 19 18 19 21 25 31 37 43 48 51 51 53 57 57 55 52 50
7 5 7 4 5 10 9 10 11 5 3 4 4 9 3 8 10 7 20 19 19 17 17 23 31 32 26 18 15 16 19 22 26 33 40 46 48 51 51 53 56 55 53 52
6 6 4 4 9 7 9 2 3 3 4 2 3 4 5 2 7 6 8 10 9 10 22 27 30 38 40 32 20 16 17 21 25 30 36 40 43 46 48 47 50 53 54 54
6 3 5 8 3 6 3 2 4 4 1 4 10 8 2 5 5 2 8 20 21 13 15 29 37 36 33 29 26 22 17 17 19 24 29 34 38 42 44 46 46 46 51 54
3 4 4 3 2 2 3 4 4 4 2 7 3 3 5 7 5 1 6 11 7 12 29 38 35 34 32 29 32 29 27 21 18 20 22 26 31 36 41 44 43 44 46 49
4 9 8 4 6 6 7 8 5 6 4 7 3 9 5 8 10 7 3 1 15 30 31 30 28 28 29 26 23 23 22 22 22 21 21 24 29 31 35 42 43 42 43 42
4 8 3 5 4 7 3 5 3 2 0 4 6 13 14 9 3 4 14 26 29 30 33 31 30 29 24 23 26 24 23 20 17 17 20 21 24 28 31 33 37 41 41 41
2 7 7 3 2 1 5 1 1 0 4 7 9 8 14 8 10 15 16 23 28 29 33 33 30 28 26 25 22 23 22 23 21 18 18 18 21 23 28 31 33 36 39 41
3 4 5 6 3 6 1 3 4 2 6 12 12 8 6 8 12 9 7 16 22 28 28 29 30 30 29 29 28 26 24 24 24 22 22 21 19 21 22 27 30 34 37 40
8 6 10 20 16 8 9 17 17 13 11 9 15 15 10 12 11 14 11 13 18 19 23 26 26 28 30 31 30 31 30 27 27 26 23 23 24 22 22 24 26 30 34 37
2 3 9 6 2 2 2 3 4 5 1 8 10 5 7 1 11 13 10 14 16 20 26 26 28 30 31 33 34 32 31 32 29 27 28 27 26 27 26 25 25 26 28 33
3 5 8 9 12 6 11 9 4 5 4 10 8 14 20 19 12 11 8 6 10 15 22 24 23 25 28 31 33 35 34 33 33 31 28 30 30 30 32 31 28 29 28 28
2 7 8 12 7 3 3 8 15 16 16 11 19 23 22 3 5 10 14 10 12 14 16 22 24 21 25 28 31 33 34 33 34 34 32 31 31 31 31 33 33 30 30 31
3 3 3 4 6 3 9 13 16 18 18 18 21 24 6 2 6 9 14 9 12 18 25 27 24 22 25 29 31 32 34 34 34 34 35 33 32 32 33 34 35 33 33 32
2 2 1 7 6 7 10 16 16 14 17 7 13 1 2 3 4 7 12 8 14 23 28 29 26 23 28 28 27 30 32 34 34 36 38 39 37 35 33 33 33 33 33 35
10 10 4 10 4 19 8 3 1 4 2 5 4 3 5 7 10 12 13 11 18 25 29 30 29 28 31 28 28 30 29 30 33 34 36 39 41 42 39 38 37 34 34 33
16 9 2 2 6 8 12 4 5 5 5 7 5 4 9 12 10 20 12 16 21 26 31 32 30 32 37 34 33 33 32 32 33 36 39 39 41 44 46 45 43 40 36 33
7 12 5 2 4 7 4 2 2 4 4 8 10 7 8 7 2 11 20 20 24 30 34 34 32 36 41 40 39 39 39 40 41 41 41 43 44 44 46 48 49 45 41 39
3 2 12 11 6 6 4 5 6 5 5 12 12 17 17 6 17 32 31 25 28 34 36 35 35 40 42 42 42 44 44 45 44 44 47 48 47 50 50 50 50 51 45 42
5 4 4 2 2 7 6 3 5 4 23 25 23 24 21 26 29 29 34 34 34 37 40 39 39 43 46 45 46 48 49 49 48 50 50 49 50 53 55 55 53 51 50 44
4 6 4 9 6 4 9 15 32 32 26 33 29 31 31 28 30 31 32 33 36 38 39 41 46 49 50 49 48 50 53 53 55 56 58 58 57 54 55 58 58 54 50 48
6 8 7 10 13 15 31 36 36 34 36 36 34 31 31 28 27 26 30 36 38 40 43 42 43 49 54 53 52 53 55 55 57 61 63 64 63 62 58 56 57 54 49 44
11 4 6 14 16 20 29 34 35 30 28 27 25 21 20 21 24 28 34 37 41 44 43 42 42 43 50 51 56 55 52 53 60 63 64 64 61 60 58 55 54 53 50 38
16 17 11 15 23 21 26 30 20 18 15 19 22 23 22 22 26 31 37 39 42 44 44 46 48 45 50 50 53 52 52 52 55 57 56 52 49 50 51 51 54 52 45 35
Wind_Direction
173 136 201 218 207 98 196 226 244 260 259 306 271 270 269 275 274 275 274 277 278 286 302 305 311 314 309 299 286 275 262 251 239 236 236 236 237 237 236 234 234 233 231 231
71 226 225 114 152 229 243 262 267 274 259 200 269 284 276 260 263 262 270 278 290 296 310 317 326 329 327 311 297 281 266 254 244 238 239 236 238 238 238 236 234 232 230 228
197 210 185 190 191 242 226 221 248 255 316 253 317 278 240 280 257 269 265 272 289 293 310 328 337 337 336 333 314 293 278 263 252 245 240 237 237 238 239 236 234 232 230 231
239 261 193 157 206 204 259 232 253 258 355 251 16 293 186 254 278 264 291 297 300 323 338 356 3 359 334 314 306 305 294 270 256 248 245 241 240 240 242 240 237 234 231 231
241 174 176 186 222 146 235 191 220 194 196 1 302 277 250 222 262 277 286 1 10 19 44 22 15 13 8 359 319 294 287 275 263 257 255 251 246 246 247 246 242 235 232 231
252 320 187 216 200 185 115 59 36 58 47 280 210 194 287 191 207 309 318 350 355 9 40 21 3 4 4 4 9 350 331 310 286 272 265 263 258 254 250 247 245 243 235 231
301 228 277 180 168 86 117 71 313 327 7 239 349 269 245 248 250 289 339 330 12 48 10 6 9 11 13 21 32 29 25 13 338 306 289 278 271 264 260 256 252 247 240 234
288 289 181 186 212 193 176 171 170 234 251 284 348 254 257 230 263 19 57 259 23 9 13 20 16 18 16 15 10 11 9 3 351 332 315 298 284 276 270 268 263 257 251 245
222 256 277 222 183 167 182 187 195 310 55 285 254 282 289 254 157 43 49 30 25 20 19 20 20 22 16 8 5 359 351 347 343 332 323 315 305 292 281 274 269 266 261 253
176 289 245 262 136 242 202 171 92 324 181 234 268 276 247 317 34 34 29 21 14 18 16 15 15 13 14 14 11 9 8 6 359 340 324 313 309 300 292 283 277 268 264 258
139 208 275 33 214 205 145 250 241 274 207 245 256 247 255 71 78 73 42 26 15 5 3 358 356 360 0 358 1 5 1 357 355 354 346 330 315 302 293 289 287 280 270 263
198 208 256 255 237 230 225 246 233 238 240 236 235 252 3 97 87 76 64 40 31 15 3 2 356 350 352 351 347 352 354 353 353 353 348 344 333 314 302 296 290 282 277 271
3 233 274 282 35 51 118 330 13 341 240 242 258 254 336 360 87 39 49 49 33 23 16 7 359 358 355 356 355 350 348 347 346 343 344 342 341 336 324 303 293 288 285 278
280 215 266 272 284 293 277 284 282 266 268 283 268 300 307 309 341 23 27 31 25 12 3 360 359 351 347 348 347 346 348 347 344 344 339 341 342 339 337 329 311 296 287 279
303 264 267 265 287 340 283 280 274 265 261 261 282 281 275 40 354 337 332 340 352 357 352 350 350 348 336 339 338 340 340 341 341 339 340 340 336 335 334 334 330 316 294 286
351 274 325 270 280 278 281 277 265 274 272 261 260 264 61 71 346 326 332 326 333 337 340 343 341 341 334 335 335 333 334 338 336 334 336 334 334 330 323 323 328 329 321 300
286 288 287 263 305 323 283 257 266 260 260 249 259 246 211 246 247 281 307 300 322 335 334 331 327 325 324 328 330 329 332 331 332 334 335 333 333 329 326 320 315 318 322 319
241 240 233 274 22 270 276 9 274 222 104 114 105 208 217 241 274 280 289 266 317 327 325 322 317 316 317 316 319 321 324 326 327 327 328 330 332 330 326 323 319 314 309 311
223 239 265 205 222 306 301 213 195 167 257 174 176 245 257 271 289 282 264 247 298 318 320 315 310 312 314 312 315 316 315 317 320 323 324 325 327 325 326 325 321 315 309 301
208 224 199 87 202 225 245 203 151 114 276 207 199 237 241 250 243 270 281 262 300 314 316 311 307 310 311 310 313 312 311 312 312 315 316 317 319 319 319 321 320 316 313 304
18 13 214 227 249 286 241 207 138 93 263 214 250 275 254 207 257 277 281 279 300 307 309 309 305 308 309 305 306 305 305 304 307 306 308 310 311 311 313 314 315 314 312 306
188 183 204 72 14 278 185 144 159 228 295 296 294 292 280 283 290 285 281 278 297 302 306 306 303 305 305 302 302 302 301 305 305 303 301 300 302 305 307 308 309 309 307 303
269 193 199 195 210 219 204 262 287 287 280 287 283 295 302 297 292 293 285 286 296 301 303 304 305 305 303 303 303 300 300 302 301 301 300 299 299 297 298 301 302 304 303 299
247 195 239 265 255 254 267 273 278 285 287 289 292 300 302 297 294 286 290 297 303 304 304 306 303 302 302 302 301 298 300 299 298 298 297 297 297 295 293 293 295 297 296 292
251 200 244 258 261 265 265 265 270 286 290 287 291 294 295 295 296 303 302 304 305 306 306 306 302 299 297 298 297 296 296 296 296 296 296 295 296 295 294 290 288 288 287 281
242 251 251 261 257 260 267 276 285 289 278 283 291 294 298 306 306 307 304 307 309 309 309 307 305 300 298 297 295 295 295 294 294 295 295 295 294 293 292 290 287 282 284 279